User: anonymous   Login
Location: Unspecified
(51.0000°N, 12.0000°E)
Time: 15:04:12
(UTC+02:00)
Language:

XW-2F - Orbit

View from above orbital plane
View from above orbital plane
View from above satellite
View from above satellite

Ground track
Ground track

The orbit data is extracted from the following two-line orbital elements,

1 40910U 15049M   18203.58435583 +.00000918 +00000-0 +50341-4 0  9993
2 40910 097.4574 207.5008 0013361 259.3991 100.5738 15.16617183156944
Epoch (UTC): 22 July 2018 14:01:28
Eccentricity: 0.0013361
inclination: 97.4574°
perigee height: 507 km
apogee height: 525 km
right ascension of ascending node: 207.5008°
argument of perigee: 259.3991°
revolutions per day: 15.16617183
mean anomaly at epoch: 100.5738°
orbit number at epoch: 15694

The dashed part of the orbit path shows where the satellite is in the earth's shadow,  

DLR